FW3241 Weather Reports


time (UTC)temp
C
wind
direction
speed
KPH
gust
KPH
rain 1hr
cm
rain 24hr
cm
rain mn
cm
humidity
%
barometer
mb
20260507161553 12 28 3.2 4.8 0.00 1.85 0.71 84 1010.9
20260507160046 12 320 1.6 4.8 0.00 1.85 0.71 84 1011.2
20260507154547 13 242 1.6 4.8 0.00 2.46 0.71 84 1011.2
20260507153106 13 218 1.6 4.8 0.00 2.46 0.71 83 1011.0
20260507151546 13 215 1.6 4.8 0.00 2.46 0.71 85 1011.0
20260507150050 13 201 0.0 3.2 0.00 2.46 0.71 85 1011.1
20260507144540 13 201 0.0 3.2 0.00 2.77 0.71 85 1010.9
20260507143037 12 201 1.6 4.8 0.00 2.77 0.71 85 1010.8
20260507141536 12 202 0.0 3.2 0.00 2.77 0.71 86 1010.9
20260507140036 12 184 0.0 3.2 0.03 2.77 0.71 86 1011.2
20260507134535 12 184 0.0 1.6 0.03 2.77 0.71 86 1011.0
20260507133035 12 184 0.0 1.6 0.03 2.77 0.71 86 1010.5
20260507131535 11 184 0.0 1.6 0.03 2.77 0.71 85 1011.5
20260507130053 11 184 0.0 0.0 0.00 2.74 0.69 85 1011.1
20260507124532 11 184 0.0 0.0 0.00 2.74 0.69 86 1010.7
20260507123035 11 184 0.0 0.0 0.00 2.74 0.69 85 1011.2
20260507121533 11 184 0.0 1.6 0.03 2.74 0.69 86 1010.7
20260507120037 11 184 0.0 0.0 0.18 2.74 0.69 85 1010.3
20260507114529 11 184 0.0 0.0 0.30 2.74 0.69 85 1010.7
20260507113028 11 184 0.0 1.6 0.43 2.74 0.69 85 1010.7
20260507111528 11 184 0.0 1.6 0.43 2.72 0.66 85 1011.4
20260507110029 11 184 0.0 1.6 0.28 2.57 0.51 85 1011.9
20260507104526 11 184 0.0 0.0 0.15 2.44 0.38 85 1011.5
20260507103028 11 184 0.0 0.0 0.03 2.31 0.25 85 1011.7
20260507101535 11 184 0.0 0.0 0.00 2.29 0.23 85 1010.9
20260507100034 11 184 0.0 1.6 0.00 2.29 0.23 85 1010.7
20260507094523 11 184 0.0 3.2 0.00 2.29 0.23 85 1011.4
20260507093024 11 184 0.0 0.0 0.00 2.29 0.23 85 1010.8
20260507091520 11 184 0.0 1.6 0.00 2.29 0.23 85 1010.4
20260507090019 12 184 0.0 0.0 0.00 2.29 0.23 85 1010.7
20260507084518 12 184 0.0 0.0 0.00 2.29 0.23 85 1010.8
20260507083018 11 184 0.0 0.0 0.00 2.29 0.23 85 1010.9
20260507081519 11 184 0.0 0.0 0.00 2.29 0.23 84 1011.1
20260507080016 11 184 0.0 0.0 0.00 2.29 0.23 85 1011.1
20260507074516 12 184 0.0 3.2 0.00 2.29 0.23 85 1011.4
20260507073015 12 184 0.0 3.2 0.00 2.29 0.23 85 1012.1
20260507071513 12 184 0.0 0.0 0.03 2.29 0.23 85 1011.2
20260507070013 12 184 0.0 0.0 0.03 2.29 0.23 84 1011.1
20260507064512 11 184 0.0 0.0 0.03 2.29 0.23 85 1011.1
20260507063011 11 184 0.0 0.0 0.03 2.29 0.23 85 1011.5
20260507061608 11 184 0.0 0.0 0.00 2.26 0.20 85 1012.0
20260507060017 11 182 0.0 1.6 0.00 2.26 0.20 85 1012.1
20260507054506 11 182 0.0 0.0 0.05 2.26 0.20 84 1012.7
20260507053005 11 182 0.0 0.0 0.15 2.26 0.20 84 1013.3
20260507051506 11 182 0.0 1.6 0.18 2.26 0.20 84 1013.8
20260507050002 11 182 0.0 1.6 0.18 2.24 0.18 84 1013.6
20260507044601 12 182 1.6 3.2 0.15 2.21 0.15 85 1013.9
20260507043102 12 217 0.0 0.0 0.43 2.11 0.05 84 1013.7
20260507041556 12 217 0.0 0.0 0.41 2.08 0.03 85 1014.1
20260507040053 12 218 0.0 3.2 0.38 2.06 0.00 85 1014.0
20260507034555 12 207 0.0 4.8 0.38 2.06 2.06 84 1014.0
20260507033053 12 103 1.6 4.8 0.00 1.68 1.68 85 1013.2
20260507031551 12 103 0.0 0.0 0.00 1.68 1.68 85 1014.0
20260507030052 12 103 1.6 3.2 0.00 1.68 1.68 85 1013.5
20260507024603 12 103 0.0 1.6 0.03 1.68 1.68 85 1014.3
20260507023050 12 103 0.0 0.0 0.05 1.68 1.68 84 1014.2
20260507021549 12 96 0.0 3.2 0.05 1.68 1.68 84 1013.0
20260507020105 12 96 1.6 9.7 0.05 1.68 1.68 85 1012.2
20260507014555 12 98 0.0 6.4 0.08 1.65 1.65 85 1013.8
20260507013049 12 186 0.0 1.6 0.08 1.63 1.63 85 1015.8
20260507011544 12 185 0.0 1.6 0.08 1.63 1.63 85 1014.5
20260507010044 12 190 0.0 1.6 0.10 1.60 1.60 85 1014.3
20260507004545 12 188 0.0 1.6 0.13 1.57 1.57 84 1014.4
20260507003043 12 190 0.0 6.4 0.13 1.55 1.55 84 1013.7
20260507001545 12 189 0.0 3.2 0.15 1.55 1.55 84 1013.4
20260507000041 12 179 0.0 3.2 0.23 1.50 1.50 84 1013.3
20260506234548 13 195 0.0 4.8 0.18 1.42 1.42 84 1012.6
20260506233041 13 171 1.6 3.2 0.15 1.42 1.42 83 1013.3
20260506231549 13 191 0.0 4.8 0.13 1.40 1.40 83 1013.2
20260506230052 13 189 1.6 4.8 0.00 1.27 1.27 83 1014.1
20260506224540 13 189 0.0 3.2 0.00 1.27 1.27 83 1013.4
20260506223050 13 192 0.0 3.2 0.10 1.27 1.27 84 1013.4
20260506221537 13 217 0.0 1.6 0.15 1.27 1.27 83 1013.2
20260506220038 13 226 0.0 1.6 0.23 1.27 1.27 83 1012.8
20260506214537 13 239 0.0 1.6 0.33 1.27 1.27 84 1013.4
20260506213049 13 198 1.6 6.4 0.23 1.17 1.17 79 1014.0
20260506211548 13 210 1.6 4.8 0.18 1.12 1.12 77 1013.9
20260506210036 14 187 0.0 4.8 0.10 1.04 1.04 74 1013.8
20260506204545 15 190 1.6 3.2 0.00 0.94 0.94 74 1014.3
20260506203034 15 196 1.6 6.4 0.00 0.94 0.94 71 1014.2
20260506201547 16 196 3.2 11.3 0.00 0.94 0.94 70 1013.9
20260506200033 16 207 1.6 3.2 0.00 0.94 0.94 70 1014.0
20260506194533 16 232 3.2 11.3 0.00 0.94 0.94 69 1014.0
20260506193036 16 189 0.0 8.0 0.00 0.94 0.94 69 1014.0
20260506191535 16 173 1.6 11.3 0.00 0.94 0.94 68 1014.2
20260506190031 17 190 3.2 8.0 0.00 0.94 0.94 66 1014.2
20260506184530 18 190 3.2 14.5 0.00 0.94 0.94 64 1014.1
20260506183039 17 188 3.2 22.5 0.00 0.94 0.94 64 1013.6
20260506181527 17 180 3.2 8.0 0.00 0.94 0.94 62 1013.5
20260506180024 17 189 3.2 8.0 0.00 0.94 0.94 66 1013.6
20260506174520 16 194 1.6 11.3 0.00 0.94 0.94 67 1013.6
20260506173017 15 182 0.0 6.4 0.00 0.94 0.94 71 1013.3
20260506171515 14 178 4.8 12.9 0.03 0.94 0.94 70 1013.2
20260506170011 13 184 3.2 6.4 0.03 0.94 0.94 75 1013.5
20260506164510 12 161 1.6 6.4 0.05 0.94 0.94 83 1013.5
20260506163013 12 174 1.6 9.7 0.13 0.94 0.94 83 1014.4